Date String (YYYY-MM-DD hh:mm:ss) UTC,Instrument flags,absolute air pressure of the measurement (hPa),sample flow rate (lpm),inlet stack bypass flow (lpm),air temperature of the measurement (°C),ambient temperature measured by the external sensor (°C),aerosol sample conditioner tube jacket temperature (°C),OPC LED temperature (°C),internal box temperature (°C),relative humidity of the measurement (%),span deviation,mass concentration of particles derived from Lorenz-Mie calculation of OPC scattering (μg/m³),mass concentration of particles derived from Lorenz-Mie calculation of OPC scattering (μg/m³),mass concentration of particles derived from Lorenz-Mie calculation of OPC scattering (μg/m³)
DateTimeUTC,F1_M11,P_M11,Q1_M11,Q2_M11,T1_M11,T2_M11,T3_M11,T4_M11,T5_M11,U1_M11,ZSPAN_M11,X0_M11,X2_M11,X1_M11
2023-08-19 04:00:00,SystemResetWarning,0831.1,5.00,000.00,027.8,026.4,000.0,036.1,029.6,27.1,0000.0,0003.08,0001.68,0001.30
2023-08-19 04:01:00,SystemResetWarning,0831.1,5.00,000.00,027.9,026.6,000.0,036.2,029.7,27.1,0000.0,0002.78,0001.64,0001.29
2023-08-19 04:02:00,SystemResetWarning,0831.0,4.99,000.00,027.9,026.7,000.0,036.2,029.8,26.6,0000.0,0002.65,0001.60,0001.28
2023-08-19 04:03:00,SystemResetWarning,0830.9,4.99,000.00,027.9,025.4,000.0,036.1,029.6,26.5,0000.0,0002.68,0001.61,0001.28
2023-08-19 04:04:00,SystemResetWarning,0830.9,5.00,000.00,027.8,023.9,000.0,036.0,029.3,26.7,0000.0,0002.66,0001.60,0001.27
2023-08-19 04:05:00,SystemResetWarning,0830.9,5.00,000.00,027.7,023.7,000.0,036.0,029.1,26.8,0000.0,0002.50,0001.57,0001.28
2023-08-19 04:06:00,SystemResetWarning,0830.9,5.01,000.00,027.7,024.0,000.0,036.0,029.0,27.1,0000.0,0002.27,0001.57,0001.29
2023-08-19 04:07:00,SystemResetWarning,0830.9,5.00,000.00,027.6,024.4,000.0,036.0,029.1,27.2,0000.0,0002.30,0001.58,0001.29
2023-08-19 04:08:00,SystemResetWarning,0830.9,5.01,000.00,027.6,024.9,000.0,036.0,029.2,27.5,0000.0,0002.40,0001.62,0001.30
2023-08-19 04:09:00,SystemResetWarning,0830.9,4.99,000.00,027.6,025.3,000.0,036.1,029.3,27.6,0000.0,0002.37,0001.63,0001.30
2023-08-19 04:10:00,SystemResetWarning,0830.9,5.00,000.00,027.7,025.6,000.0,036.1,029.4,27.4,0000.0,0002.38,0001.63,0001.30
2023-08-19 04:11:00,SystemResetWarning,0830.9,5.00,000.00,027.7,025.9,000.0,036.1,029.5,27.2,0000.0,0003.21,0001.68,0001.31
2023-08-19 04:12:00,SystemResetWarning,0830.9,5.01,000.00,027.8,026.2,000.0,036.1,029.6,27.1,0000.0,0004.80,0001.69,0001.32
2023-08-19 04:13:00,SystemResetWarning,0830.9,4.99,000.00,027.8,026.5,000.0,036.2,029.6,26.9,0000.0,0005.04,0001.73,0001.33
2023-08-19 04:14:00,SystemResetWarning,0830.9,5.00,000.00,027.9,026.7,000.0,036.2,029.7,26.8,0000.0,0005.05,0001.75,0001.34
2023-08-19 04:15:00,SystemResetWarning,0830.9,5.00,000.00,027.9,026.8,000.0,036.2,029.8,26.7,0000.0,0005.10,0001.79,0001.35
2023-08-19 04:16:00,SystemResetWarning,0830.9,4.99,000.00,028.0,026.1,000.0,036.2,029.7,26.6,0000.0,0005.19,0001.83,0001.36
2023-08-19 04:17:00,SystemResetWarning,0830.9,5.01,000.00,027.9,024.3,000.0,036.1,029.4,26.7,0000.0,0005.53,0001.83,0001.36
2023-08-19 04:18:00,SystemResetWarning,0830.8,5.01,000.00,027.8,023.7,000.0,036.0,029.2,26.7,0000.0,0005.78,0001.83,0001.36
2023-08-19 04:19:00,SystemResetWarning,0830.8,5.01,000.00,027.7,023.8,000.0,036.0,029.0,26.9,0000.0,0005.87,0001.86,0001.36
2023-08-19 04:20:00,SystemResetWarning,0830.8,5.00,000.00,027.6,024.2,000.0,036.0,029.0,27.0,0000.0,0005.89,0001.86,0001.36
2023-08-19 04:21:00,SystemResetWarning,0830.8,5.00,000.00,027.6,024.7,000.0,036.1,029.2,27.1,0000.0,0005.93,0001.82,0001.35
2023-08-19 04:22:00,SystemResetWarning,0830.8,5.00,000.00,027.6,025.1,000.0,036.1,029.3,27.1,0000.0,0005.69,0001.78,0001.33
2023-08-19 04:23:00,SystemResetWarning,0830.8,5.00,000.00,027.7,025.5,000.0,036.1,029.4,27.0,0000.0,0004.08,0001.74,0001.32
2023-08-19 04:24:00,SystemResetWarning,0830.8,5.00,000.00,027.7,025.8,000.0,036.1,029.5,27.0,0000.0,0003.73,0001.72,0001.31
2023-08-19 04:25:00,SystemResetWarning,0830.8,4.99,000.00,027.8,026.1,000.0,036.2,029.6,26.9,0000.0,0003.78,0001.70,0001.30
2023-08-19 04:26:00,SystemResetWarning,0830.8,5.00,000.00,027.8,026.3,000.0,036.2,029.6,26.8,0000.0,0003.87,0001.68,0001.30
2023-08-19 04:27:00,SystemResetWarning,0830.8,5.00,000.00,027.9,026.6,000.0,036.2,029.7,26.7,0000.0,0004.00,0001.67,0001.30
2023-08-19 04:28:00,SystemResetWarning,0830.7,5.00,000.00,027.9,026.7,000.0,036.2,029.8,26.5,0000.0,0003.94,0001.69,0001.31
2023-08-19 04:29:00,SystemResetWarning,0830.7,4.99,000.00,027.9,025.6,000.0,036.2,029.6,26.5,0000.0,0003.56,0001.74,0001.31
2023-08-19 04:30:00,SystemResetWarning,0830.7,5.00,000.00,027.9,024.0,000.0,036.1,029.3,26.5,0000.0,0003.50,0001.73,0001.30
2023-08-19 04:31:00,SystemResetWarning,0830.7,5.01,000.00,027.8,023.6,000.0,036.0,029.1,26.6,0000.0,0003.46,0001.74,0001.31
2023-08-19 04:32:00,SystemResetWarning,0830.7,5.01,000.00,027.7,023.9,000.0,036.0,029.0,26.7,0000.0,0003.50,0001.77,0001.32
2023-08-19 04:33:00,SystemResetWarning,0830.6,5.00,000.00,027.6,024.3,000.0,036.0,029.1,26.9,0000.0,0003.21,0001.80,0001.33
2023-08-19 04:34:00,SystemResetWarning,0830.6,5.00,000.00,027.6,024.7,000.0,036.1,029.2,26.8,0000.0,0003.22,0001.86,0001.34
2023-08-19 04:35:00,SystemResetWarning,0830.6,5.00,000.00,027.6,025.2,000.0,036.1,029.3,26.7,0000.0,0003.42,0001.92,0001.35
2023-08-19 04:36:00,SystemResetWarning,0830.6,5.00,000.00,027.7,025.5,000.0,036.1,029.4,26.6,0000.0,0003.58,0001.93,0001.35
2023-08-19 04:37:00,SystemResetWarning,0830.6,4.98,000.00,027.7,025.9,000.0,036.1,029.5,26.5,0000.0,0003.49,0001.96,0001.36
2023-08-19 04:38:00,SystemResetWarning,0830.7,5.00,000.00,027.7,026.1,000.0,036.1,029.5,26.5,0000.0,0003.28,0001.94,0001.37
2023-08-19 04:39:00,SystemResetWarning,0830.7,5.01,000.00,027.8,026.4,000.0,036.2,029.6,26.5,0000.0,0003.22,0001.92,0001.37
2023-08-19 04:40:00,SystemResetWarning,0830.7,5.01,000.00,027.9,026.6,000.0,036.2,029.7,26.4,0000.0,0003.14,0001.89,0001.37
2023-08-19 04:41:00,SystemResetWarning,0830.7,5.00,000.00,027.9,026.8,000.0,036.2,029.8,26.5,0000.0,0003.21,0001.89,0001.38
2023-08-19 04:42:00,SystemResetWarning,0830.7,5.00,000.00,028.0,026.9,000.0,036.3,029.8,26.3,0000.0,0003.31,0001.87,0001.37
2023-08-19 04:43:00,SystemResetWarning,0830.8,4.98,000.00,028.0,026.4,000.0,036.2,029.8,26.2,0000.0,0003.87,0001.89,0001.38
2023-08-19 04:44:00,SystemResetWarning,0830.7,5.00,000.00,027.9,024.7,000.0,036.2,029.5,26.3,0000.0,0004.47,0001.89,0001.37
2023-08-19 04:45:00,SystemResetWarning,0830.7,5.00,000.00,027.9,023.7,000.0,036.1,029.2,26.4,0000.0,0004.41,0001.86,0001.36
2023-08-19 04:46:00,SystemResetWarning,0830.7,5.01,000.00,027.8,023.8,000.0,036.0,029.1,26.6,0000.0,0004.22,0001.82,0001.35
2023-08-19 04:47:00,SystemResetWarning,0830.7,5.01,000.00,027.7,024.1,000.0,036.1,029.1,26.7,0000.0,0003.99,0001.81,0001.35
2023-08-19 04:48:00,SystemResetWarning,0830.7,5.00,000.00,027.7,024.6,000.0,036.1,029.2,26.8,0000.0,0003.95,0001.77,0001.34
2023-08-19 04:49:00,SystemResetWarning,0830.7,5.00,000.00,027.7,025.1,000.0,036.1,029.3,26.8,0000.0,0004.64,0001.75,0001.32
2023-08-19 04:50:00,SystemResetWarning,0830.8,5.00,000.00,027.7,025.4,000.0,036.1,029.4,26.9,0000.0,0005.50,0001.74,0001.31
2023-08-19 04:51:00,SystemResetWarning,0830.8,5.01,000.00,027.8,025.8,000.0,036.2,029.5,26.9,0000.0,0005.47,0001.73,0001.31
2023-08-19 04:52:00,SystemResetWarning,0830.9,4.99,000.00,027.8,026.1,000.0,036.2,029.6,27.1,0000.0,0005.34,0001.70,0001.30
2023-08-19 04:53:00,SystemResetWarning,0830.8,4.99,000.00,027.8,026.3,000.0,036.2,029.6,26.9,0000.0,0005.20,0001.70,0001.30
2023-08-19 04:54:00,SystemResetWarning,0830.8,4.99,000.00,027.9,026.5,000.0,036.2,029.7,26.7,0000.0,0004.58,0001.65,0001.29
2023-08-19 04:55:00,SystemResetWarning,0830.8,5.00,000.00,027.9,026.7,000.0,036.3,029.8,26.5,0000.0,0003.91,0001.62,0001.29
2023-08-19 04:56:00,SystemResetWarning,0830.9,5.01,000.00,028.0,026.9,000.0,036.3,029.9,26.4,0000.0,0003.93,0001.64,0001.29
2023-08-19 04:57:00,SystemResetWarning,0830.9,4.99,000.00,028.0,026.2,000.0,036.3,029.8,26.3,0000.0,0003.90,0001.63,0001.29
2023-08-19 04:58:00,SystemResetWarning,0830.9,5.00,000.00,027.9,024.5,000.0,036.2,029.4,26.4,0000.0,0003.87,0001.63,0001.29
2023-08-19 04:59:00,SystemResetWarning,0830.9,5.01,000.00,027.9,023.7,000.0,036.1,029.2,26.7,0000.0,0003.90,0001.65,0001.31
